Weather History for Fort Yukon, AK

Change the Weather History Date:

Thursday, September 19, 2013

  Actual Average Record
Temperature  
Mean Temperature 30 °F -  
Max Temperature 33 °F 46 °F 62 °F (2006)
Min Temperature 26 °F 29 °F 21 °F (2004)
Degree Days  
Heating Degree Days 36    
Moisture  
Dew Point 26 °F    
Average Humidity 85    
Maximum Humidity 93    
Minimum Humidity 70    
Precipitation  
Precipitation 0.00 in - - ()
Sea Level Pressure  
Sea Level Pressure 29.67 in    
Wind  
Wind Speed 2 mph (NW)    
Max Wind Speed 7 mph    
Max Gust Speed -    
Visibility 7 miles    
Events Fog , Snow    
Averages and records for this station are not official NWS values.
T = Trace of Precipitation, MM = Missing Value Source: NWS Daily Summary

Daily Weather History Graph

Daily Weather History Graph

Search for Another Location

Airport:

Trip Planner

Search our weather history database for the weather conditions in past years. The results will help you decide how hot, cold, wet, or windy it might be!

Date:

Astronomy

Sep. 19, 2013 Rise Set
Actual Time 7:14 AM AKDT 7:52 PM AKDT
Civil Twilight 6:21 AM AKDT 8:45 PM AKDT
Nautical Twilight 5:14 AM AKDT 9:51 PM AKDT
Astronomical Twilight 3:50 AM AKDT 11:13 PM AKDT
Moon 7:17 PM AKDT (9/19) 8:01 AM AKDT (9/19)
Length of Visible Light 14h 23m
Length of Day
12h 37m
Full, 100% of the Moon is Illuminated
Sep 19
Full
Sep 26
Last Quarter
Oct 4
New
Oct 11
First Quarter
Oct 18
Full

Hourly Weather History & Observations

Time (AKDT) Temp. Windchill Dew Point Humidity Pressure Visibility Wind Dir Wind Speed Gust Speed Precip Events Conditions
12:16 AM 32.0 °F - 28.4 °F 87% 29.71 in 10.0 mi Calm Calm - N/A   Mostly Cloudy
12:36 AM 30.2 °F - 28.4 °F 93% 29.71 in 10.0 mi Calm Calm - N/A   Partly Cloudy
12:56 AM 30.2 °F - 28.4 °F 93% 29.71 in 10.0 mi Calm Calm - N/A   Partly Cloudy
1:16 AM 30.2 °F - 28.4 °F 93% 29.71 in 10.0 mi Calm Calm - N/A   Mostly Cloudy
1:36 AM 28.4 °F - 26.6 °F 93% 29.71 in 10.0 mi Calm Calm - N/A   Overcast
1:56 AM 30.2 °F - 26.6 °F 86% 29.71 in 10.0 mi Calm Calm - N/A   Overcast
2:16 AM 30.2 °F - 26.6 °F 86% 29.71 in 10.0 mi Calm Calm - N/A   Overcast
2:36 AM 30.2 °F - 26.6 °F 86% 29.71 in 10.0 mi Calm Calm - N/A   Overcast
2:56 AM 30.2 °F - 26.6 °F 86% 29.71 in 9.0 mi Calm Calm - N/A   Overcast
3:16 AM 28.4 °F - 26.6 °F 93% 29.71 in 10.0 mi Calm Calm - N/A   Mostly Cloudy
3:36 AM 28.4 °F - 26.6 °F 93% 29.71 in 9.0 mi Calm Calm - N/A   Partly Cloudy
3:56 AM 26.6 °F - 24.8 °F 93% 29.71 in 2.5 mi Calm Calm - N/A   Partly Cloudy
4:16 AM 28.4 °F - 24.8 °F 86% 29.71 in 3.0 mi Calm Calm - N/A   Partly Cloudy
4:36 AM 26.6 °F - 21.2 °F 80% 29.71 in 2.5 mi Calm Calm - N/A   Mostly Cloudy
4:56 AM 26.6 °F - 24.8 °F 93% 29.71 in 1.8 mi Calm Calm - N/A   Overcast
5:16 AM 26.6 °F - 24.8 °F 93% 29.71 in 3.0 mi Calm Calm - N/A   Overcast
5:36 AM 26.6 °F - 24.8 °F 93% 29.71 in 0.5 mi Calm Calm - N/A   Overcast
5:56 AM 26.6 °F - 23.0 °F 86% 29.71 in 2.5 mi Calm Calm - N/A   Mostly Cloudy
6:36 AM 26.6 °F - 24.8 °F 93% 29.70 in 10.0 mi Calm Calm - N/A   Overcast
7:16 AM 26.6 °F 21.2 °F 23.0 °F 86% 29.70 in 10.0 mi NE 4.6 mph - N/A   Overcast
7:36 AM 26.6 °F 22.6 °F 23.0 °F 86% 29.70 in 10.0 mi NNE 3.5 mph - N/A   Overcast
7:55 AM 26.6 °F - 24.8 °F 93% 29.70 in 2.0 mi Calm Calm - N/A   Overcast
7:56 AM 26.6 °F - 24.8 °F 93% 29.70 in 3.0 mi Calm Calm - N/A   Overcast
8:07 AM 26.6 °F - 24.8 °F 93% 29.71 in 0.8 mi Calm Calm - N/A Fog Patches of Fog
8:11 AM 26.6 °F - 24.8 °F 93% 29.70 in 0.5 mi Calm Calm - N/A Fog Light Freezing Fog
8:16 AM 26.6 °F - 24.8 °F 93% 29.70 in 0.5 mi Calm Calm - N/A   Overcast
8:21 AM 28.4 °F 24.6 °F 24.8 °F 86% 29.70 in 3.0 mi NNE 3.5 mph - N/A   Overcast
8:36 AM 28.4 °F - 24.8 °F 86% 29.70 in 8.0 mi Calm Calm - N/A   Overcast
8:56 AM 28.4 °F - 24.8 °F 86% 29.70 in 10.0 mi Calm Calm - N/A   Overcast
9:05 AM 28.4 °F - 26.6 °F 93% 29.70 in 10.0 mi Calm Calm - N/A   Overcast
9:16 AM 28.4 °F 24.6 °F 26.6 °F 93% 29.70 in 10.0 mi ENE 3.5 mph - N/A   Overcast
9:35 AM 28.4 °F 23.3 °F 26.6 °F 93% 29.70 in 10.0 mi NNE 4.6 mph - N/A   Overcast
9:36 AM 28.4 °F 23.3 °F 26.6 °F 93% 29.70 in 10.0 mi ENE 4.6 mph - N/A   Overcast
9:56 AM 30.2 °F 26.7 °F 26.6 °F 86% 29.69 in 10.0 mi NE 3.5 mph - N/A   Overcast
10:16 AM 30.2 °F - 26.6 °F 86% 29.70 in 10.0 mi Calm Calm - N/A   Overcast
10:36 AM 30.2 °F - 26.6 °F 86% 29.70 in 10.0 mi Calm Calm - N/A   Overcast
10:56 AM 30.2 °F - 26.6 °F 86% 29.69 in 10.0 mi Calm Calm - N/A   Overcast
11:16 AM 30.2 °F 26.7 °F 26.6 °F 86% 29.70 in 10.0 mi NNE 3.5 mph - N/A   Overcast
11:36 AM 30.2 °F 26.7 °F 26.6 °F 86% 29.70 in 10.0 mi North 3.5 mph - N/A   Overcast
11:44 AM 33.8 °F 29.6 °F 26.6 °F 75% 29.69 in 10.0 mi North 4.6 mph - N/A   Overcast
11:56 AM 30.2 °F 25.4 °F 28.4 °F 93% 29.69 in 10.0 mi NNE 4.6 mph - N/A   Overcast
12:16 PM 30.2 °F 25.4 °F 26.6 °F 86% 29.69 in 10.0 mi NE 4.6 mph - N/A   Overcast
12:36 PM 30.2 °F 25.4 °F 26.6 °F 86% 29.69 in 10.0 mi NE 4.6 mph - N/A   Mostly Cloudy
1:16 PM 32.0 °F - 26.6 °F 80% 29.68 in 10.0 mi Calm Calm - N/A   Overcast
1:36 PM 33.8 °F 30.8 °F 26.6 °F 75% 29.68 in 10.0 mi WNW 3.5 mph - N/A   Overcast
1:56 PM 33.8 °F 30.8 °F 26.6 °F 75% 29.68 in 10.0 mi NW 3.5 mph - N/A   Overcast
2:16 PM 33.8 °F 30.8 °F 28.4 °F 81% 29.68 in 10.0 mi West 3.5 mph - N/A   Overcast
2:36 PM 33.8 °F 28.6 °F 28.4 °F 81% 29.67 in 10.0 mi WNW 5.8 mph - N/A   Overcast
2:56 PM 33.8 °F 30.8 °F 28.4 °F 81% 29.67 in 10.0 mi NW 3.5 mph - N/A   Overcast
3:16 PM 35.6 °F 32.8 °F 28.4 °F 75% 29.67 in 10.0 mi NW 3.5 mph - N/A   Overcast
3:36 PM 35.6 °F 30.7 °F 26.6 °F 70% 29.67 in 10.0 mi WNW 5.8 mph - N/A   Overcast
3:56 PM 35.6 °F 32.8 °F 26.6 °F 70% 29.66 in 10.0 mi WNW 3.5 mph - N/A   Overcast
4:16 PM 33.8 °F 28.6 °F 26.6 °F 75% 29.66 in 3.0 mi WNW 5.8 mph - N/A   Mostly Cloudy
4:36 PM 33.8 °F 28.6 °F 26.6 °F 75% 29.66 in 6.0 mi WNW 5.8 mph - N/A   Overcast
4:56 PM 33.8 °F 27.7 °F 28.4 °F 81% 29.66 in 6.0 mi WNW 6.9 mph - N/A   Overcast
5:16 PM 33.8 °F 29.6 °F 28.4 °F 81% 29.66 in 3.0 mi West 4.6 mph - N/A   Overcast
5:25 PM 33.8 °F 29.6 °F 28.4 °F 81% 29.65 in 3.0 mi West 4.6 mph - N/A Snow Light Snow
5:42 PM 33.8 °F 28.6 °F 28.4 °F 81% 29.65 in 5.0 mi West 5.8 mph - N/A Snow Light Snow
5:55 PM 33.8 °F 27.7 °F 26.6 °F 75% 29.65 in 5.0 mi West 6.9 mph - N/A Snow Light Snow
5:56 PM 33.8 °F 27.7 °F 26.6 °F 75% 29.65 in 5.0 mi WNW 6.9 mph - N/A   Overcast
6:16 PM 32.0 °F 26.4 °F 26.6 °F 80% 29.64 in 4.0 mi WNW 5.8 mph - N/A   Overcast
6:18 PM 32.0 °F 26.4 °F 26.6 °F 80% 29.65 in 5.0 mi West 5.8 mph - N/A Snow Light Snow
6:30 PM 32.0 °F 26.4 °F 26.6 °F 80% 29.65 in 2.0 mi WSW 5.8 mph - N/A Snow Light Snow
6:36 PM 32.0 °F 25.6 °F 26.6 °F 80% 29.64 in 2.0 mi WNW 6.9 mph - N/A   Overcast
6:44 PM 32.0 °F 25.6 °F 26.6 °F 80% 29.64 in 1.5 mi West 6.9 mph - N/A Snow Light Snow
6:53 PM 30.2 °F 24.3 °F 26.6 °F 86% 29.64 in 3.0 mi West 5.8 mph - N/A Snow Light Snow
6:56 PM 30.2 °F 23.4 °F 26.6 °F 86% 29.64 in 3.0 mi WNW 6.9 mph - N/A   Overcast
7:16 PM 30.2 °F 24.3 °F 26.6 °F 86% 29.63 in 5.0 mi WNW 5.8 mph - N/A   Overcast
7:36 PM 30.2 °F 25.4 °F 26.6 °F 86% 29.64 in 10.0 mi WNW 4.6 mph - N/A   Scattered Clouds
7:56 PM 30.2 °F 26.7 °F 26.6 °F 86% 29.63 in 10.0 mi West 3.5 mph - N/A   Partly Cloudy
8:36 PM 30.2 °F 25.4 °F 26.6 °F 86% 29.62 in 10.0 mi WNW 4.6 mph - N/A   Mostly Cloudy
8:56 PM 30.2 °F 25.4 °F 26.6 °F 86% 29.62 in 10.0 mi WNW 4.6 mph - N/A   Mostly Cloudy
9:16 PM 30.2 °F 25.4 °F 26.6 °F 86% 29.61 in 10.0 mi WNW 4.6 mph - N/A   Mostly Cloudy
9:36 PM 30.2 °F 26.7 °F 26.6 °F 86% 29.60 in 10.0 mi WNW 3.5 mph - N/A   Partly Cloudy
9:56 PM 30.2 °F 26.7 °F 26.6 °F 86% 29.60 in 10.0 mi West 3.5 mph - N/A   Scattered Clouds
10:16 PM 30.2 °F - 26.6 °F 86% 29.60 in 10.0 mi Calm Calm - N/A   Mostly Cloudy
10:36 PM 30.2 °F - 26.6 °F 86% 29.59 in 10.0 mi Calm Calm - N/A   Overcast
10:56 PM 30.2 °F - 26.6 °F 86% 29.59 in 10.0 mi Calm Calm - N/A   Overcast
11:16 PM 30.2 °F - 26.6 °F 86% 29.59 in 10.0 mi Calm Calm - N/A   Overcast
11:36 PM 30.2 °F - 26.6 °F 86% 29.58 in 10.0 mi Calm Calm - N/A   Overcast
11:56 PM 30.2 °F - 26.6 °F 86% 29.58 in 10.0 mi Calm Calm - N/A   Overcast